Time,TemperatureF,DewpointF,PressureIn,WindDirection,WindDirectionDegrees,WindSpeedMPH,WindSpeedGustMPH,Humidity,HourlyPrecipIn,Conditions,Clouds,dailyrainin,SoftwareType,DateUTC
2013-01-20 00:02:00,32.6,27.4,29.82,WSW,240,0.0,1.0,81,0.00,,,0.00,Wunderground v.1.13,2013-01-20 05:02:00,
2013-01-20 00:03:00,32.6,27.4,29.82,WSW,240,1.0,1.0,81,0.00,,,0.00,Wunderground v.1.13,2013-01-20 05:03:00,
2013-01-20 00:04:00,32.6,27.4,29.82,West,261,1.0,1.0,81,0.00,,,0.00,Wunderground v.1.13,2013-01-20 05:04:00,
2013-01-20 00:08:00,32.8,27.6,29.82,West,261,0.0,3.0,81,0.00,,,0.00,Wunderground v.1.13,2013-01-20 05:08:00,
2013-01-20 00:13:00,33.0,27.8,29.83,West,261,2.0,2.0,81,0.00,,,0.00,Wunderground v.1.13,2013-01-20 05:13:00,
2013-01-20 00:19:00,33.2,28.0,29.83,West,262,0.0,2.0,81,0.00,,,0.00,Wunderground v.1.13,2013-01-20 05:19:00,
2013-01-20 00:24:00,33.4,28.5,29.82,West,262,0.0,1.0,82,0.00,,,0.00,Wunderground v.1.13,2013-01-20 05:24:00,
2013-01-20 00:30:00,33.7,28.8,29.82,West,262,1.0,1.0,82,0.00,,,0.00,Wunderground v.1.13,2013-01-20 05:30:00,
2013-01-20 00:36:00,34.0,28.8,29.80,West,262,0.0,0.0,81,0.00,,,0.00,Wunderground v.1.13,2013-01-20 05:36:00,
2013-01-20 00:42:00,34.2,28.7,29.80,West,262,2.0,2.0,80,0.00,,,0.00,Wunderground v.1.13,2013-01-20 05:42:00,
2013-01-20 00:48:00,34.2,28.7,29.80,West,262,1.0,1.0,80,0.00,,,0.00,Wunderground v.1.13,2013-01-20 05:48:00,
2013-01-20 00:54:00,34.0,28.8,29.79,West,262,2.0,2.0,81,0.00,,,0.00,Wunderground v.1.13,2013-01-20 05:54:00,
2013-01-20 01:00:00,33.8,28.3,29.79,West,262,2.0,2.0,80,0.00,,,0.00,Wunderground v.1.13,2013-01-20 06:00:00,
2013-01-20 01:05:00,33.7,28.8,29.79,West,262,0.0,1.0,82,0.00,,,0.00,Wunderground v.1.13,2013-01-20 06:05:00,
2013-01-20 01:11:00,33.8,28.9,29.78,West,262,0.0,0.0,82,0.00,,,0.00,Wunderground v.1.13,2013-01-20 06:11:00,
2013-01-20 01:16:00,33.8,28.9,29.78,West,262,0.0,0.0,82,0.00,,,0.00,Wunderground v.1.13,2013-01-20 06:16:00,
2013-01-20 01:22:00,33.8,28.9,29.78,West,262,0.0,0.0,82,0.00,,,0.00,Wunderground v.1.13,2013-01-20 06:22:00,
2013-01-20 01:28:00,33.8,29.2,29.78,West,262,0.0,2.0,83,0.00,,,0.00,Wunderground v.1.13,2013-01-20 06:28:00,
2013-01-20 01:34:00,33.8,28.9,29.78,West,262,0.0,1.0,82,0.00,,,0.00,Wunderground v.1.13,2013-01-20 06:34:00,
2013-01-20 01:39:00,33.9,29.0,29.78,West,262,2.0,2.0,82,0.00,,,0.00,Wunderground v.1.13,2013-01-20 06:39:00,
2013-01-20 01:45:00,34.1,29.2,29.78,West,262,0.0,0.0,82,0.00,,,0.00,Wunderground v.1.13,2013-01-20 06:45:00,
2013-01-20 01:51:00,34.4,29.2,29.77,West,262,0.0,0.0,81,0.00,,,0.00,Wunderground v.1.13,2013-01-20 06:51:00,
2013-01-20 01:57:00,34.6,29.7,29.77,West,262,0.0,0.0,82,0.00,,,0.00,Wunderground v.1.13,2013-01-20 06:57:00,
2013-01-20 02:02:00,34.7,29.5,29.77,West,262,0.0,2.0,81,0.00,,,0.00,Wunderground v.1.13,2013-01-20 07:02:00,
2013-01-20 02:07:00,34.8,29.6,29.77,NE,34,2.0,2.0,81,0.00,,,0.00,Wunderground v.1.13,2013-01-20 07:07:00,
2013-01-20 02:12:00,34.7,29.2,29.76,SW,221,1.0,3.0,80,0.00,,,0.00,Wunderground v.1.13,2013-01-20 07:12:00,
2013-01-20 02:17:00,34.7,28.9,29.76,SW,224,0.0,3.0,79,0.00,,,0.00,Wunderground v.1.13,2013-01-20 07:17:00,
2013-01-20 02:22:00,34.7,28.9,29.76,West,260,0.0,4.0,79,0.00,,,0.00,Wunderground v.1.13,2013-01-20 07:22:00,
2013-01-20 02:27:00,34.8,28.6,29.75,SSW,197,1.0,1.0,78,0.00,,,0.00,Wunderground v.1.13,2013-01-20 07:27:00,
2013-01-20 02:32:00,35.3,28.5,29.75,SSE,166,0.0,3.0,76,0.00,,,0.00,Wunderground v.1.13,2013-01-20 07:32:00,
2013-01-20 02:37:00,35.5,29.0,29.75,WNW,285,3.0,3.0,77,0.00,,,0.00,Wunderground v.1.13,2013-01-20 07:37:00,
2013-01-20 02:42:00,36.1,28.6,29.75,ENE,58,2.0,3.0,74,0.00,,,0.00,Wunderground v.1.13,2013-01-20 07:42:00,
2013-01-20 02:47:00,36.6,28.8,29.75,ENE,70,3.0,3.0,73,0.00,,,0.00,Wunderground v.1.13,2013-01-20 07:47:00,
2013-01-20 02:52:00,36.8,28.3,29.74,WSW,255,0.0,5.0,71,0.00,,,0.00,Wunderground v.1.13,2013-01-20 07:52:00,
2013-01-20 02:57:00,36.3,28.5,29.74,WSW,255,0.0,2.0,73,0.00,,,0.00,Wunderground v.1.13,2013-01-20 07:57:00,
2013-01-20 03:03:00,35.7,28.6,29.74,WSW,255,0.0,2.0,75,0.00,,,0.00,Wunderground v.1.13,2013-01-20 08:03:00,
2013-01-20 03:08:00,35.2,28.7,29.73,WSW,255,0.0,1.0,77,0.00,,,0.00,Wunderground v.1.13,2013-01-20 08:08:00,
2013-01-20 03:13:00,34.6,28.1,29.73,WSW,255,0.0,1.0,77,0.00,,,0.00,Wunderground v.1.13,2013-01-20 08:13:00,
2013-01-20 03:18:00,34.3,28.2,29.73,WSW,255,0.0,0.0,78,0.00,,,0.00,Wunderground v.1.13,2013-01-20 08:18:00,
2013-01-20 03:24:00,33.9,27.8,29.72,WSW,255,0.0,1.0,78,0.00,,,0.00,Wunderground v.1.13,2013-01-20 08:24:00,
2013-01-20 03:28:00,33.7,27.9,29.72,WSW,255,0.0,1.0,79,0.00,,,0.00,Wunderground v.1.13,2013-01-20 08:28:00,
2013-01-20 03:34:00,33.5,27.4,29.72,WNW,285,0.0,2.0,78,0.00,,,0.00,Wunderground v.1.13,2013-01-20 08:34:00,
2013-01-20 03:39:00,33.4,27.3,29.71,WNW,285,1.0,2.0,78,0.00,,,0.00,Wunderground v.1.13,2013-01-20 08:39:00,
2013-01-20 03:44:00,33.2,27.1,29.71,WNW,285,1.0,1.0,78,0.00,,,0.00,Wunderground v.1.13,2013-01-20 08:44:00,
2013-01-20 03:49:00,32.7,26.9,29.71,SW,216,0.0,1.0,79,0.00,,,0.00,Wunderground v.1.13,2013-01-20 08:49:00,
2013-01-20 03:55:00,32.4,26.6,29.70,NNE,15,0.0,1.0,79,0.00,,,0.00,Wunderground v.1.13,2013-01-20 08:55:00,
2013-01-20 04:00:00,32.8,26.7,29.70,NE,49,1.0,2.0,78,0.00,,,0.00,Wunderground v.1.13,2013-01-20 09:00:00,
2013-01-20 04:05:00,33.0,26.9,29.69,NE,49,0.0,2.0,78,0.00,,,0.00,Wunderground v.1.13,2013-01-20 09:05:00,
2013-01-20 04:10:00,32.8,26.7,29.69,SW,236,1.0,2.0,78,0.00,,,0.00,Wunderground v.1.13,2013-01-20 09:10:00,
2013-01-20 04:15:00,32.6,26.5,29.69,SW,236,0.0,1.0,78,0.00,,,0.00,Wunderground v.1.13,2013-01-20 09:15:00,
2013-01-20 04:20:00,32.4,26.3,29.68,NNE,29,1.0,2.0,78,0.00,,,0.00,Wunderground v.1.13,2013-01-20 09:20:00,
2013-01-20 04:25:00,32.6,26.5,29.68,ESE,111,1.0,2.0,78,0.00,,,0.00,Wunderground v.1.13,2013-01-20 09:25:00,
2013-01-20 04:30:00,32.9,26.5,29.68,NW,323,0.0,2.0,77,0.00,,,0.00,Wunderground v.1.13,2013-01-20 09:30:00,
2013-01-20 04:35:00,33.2,26.8,29.67,WSW,250,3.0,3.0,77,0.00,,,0.00,Wunderground v.1.13,2013-01-20 09:35:00,
2013-01-20 04:40:00,33.4,26.6,29.67,ESE,115,1.0,1.0,76,0.00,,,0.00,Wunderground v.1.13,2013-01-20 09:40:00,
2013-01-20 04:45:00,33.2,26.5,29.67,North,355,1.0,1.0,76,0.00,,,0.00,Wunderground v.1.13,2013-01-20 09:45:00,
2013-01-20 04:50:00,33.1,26.7,29.66,North,355,0.0,1.0,77,0.00,,,0.00,Wunderground v.1.13,2013-01-20 09:50:00,
2013-01-20 04:55:00,33.5,26.7,29.66,SSW,202,3.0,3.0,76,0.00,,,0.00,Wunderground v.1.13,2013-01-20 09:55:00,
2013-01-20 05:00:00,34.4,27.0,29.65,East,79,1.0,3.0,74,0.00,,,0.00,Wunderground v.1.13,2013-01-20 10:00:00,
2013-01-20 05:05:00,34.8,27.0,29.65,NNE,17,4.0,5.0,73,0.00,,,0.00,Wunderground v.1.13,2013-01-20 10:05:00,
2013-01-20 05:11:00,35.2,27.1,29.65,SSE,166,4.0,5.0,72,0.00,,,0.00,Wunderground v.1.13,2013-01-20 10:11:00,
2013-01-20 05:16:00,35.3,26.8,29.64,ENE,74,7.0,7.0,71,0.00,,,0.00,Wunderground v.1.13,2013-01-20 10:16:00,
2013-01-20 05:21:00,35.5,27.0,29.64,East,90,2.0,4.0,71,0.00,,,0.00,Wunderground v.1.13,2013-01-20 10:21:00,
2013-01-20 05:26:00,35.4,26.9,29.63,NE,52,2.0,5.0,71,0.00,,,0.00,Wunderground v.1.13,2013-01-20 10:26:00,
2013-01-20 05:31:00,35.2,26.7,29.63,East,88,3.0,5.0,71,0.00,,,0.00,Wunderground v.1.13,2013-01-20 10:31:00,
2013-01-20 05:36:00,35.1,26.6,29.63,East,91,2.0,3.0,71,0.00,,,0.00,Wunderground v.1.13,2013-01-20 10:36:00,
2013-01-20 05:41:00,34.9,26.4,29.63,East,89,3.0,6.0,71,0.00,,,0.00,Wunderground v.1.13,2013-01-20 10:41:00,
2013-01-20 05:47:00,35.0,26.5,29.62,WNW,294,2.0,4.0,71,0.00,,,0.00,Wunderground v.1.13,2013-01-20 10:47:00,
2013-01-20 05:52:00,35.0,26.5,29.62,SE,126,2.0,3.0,71,0.00,,,0.00,Wunderground v.1.13,2013-01-20 10:52:00,
2013-01-20 05:57:00,34.9,26.4,29.62,NE,46,3.0,5.0,71,0.00,,,0.00,Wunderground v.1.13,2013-01-20 10:57:00,
2013-01-20 06:02:00,34.9,26.4,29.61,East,86,2.0,6.0,71,0.00,,,0.00,Wunderground v.1.13,2013-01-20 11:02:00,
2013-01-20 06:07:00,34.9,26.4,29.61,NE,35,1.0,5.0,71,0.00,,,0.00,Wunderground v.1.13,2013-01-20 11:07:00,
2013-01-20 06:12:00,35.0,26.5,29.60,East,87,3.0,5.0,71,0.00,,,0.00,Wunderground v.1.13,2013-01-20 11:12:00,
2013-01-20 06:17:00,35.0,26.5,29.60,ENE,76,1.0,4.0,71,0.00,,,0.00,Wunderground v.1.13,2013-01-20 11:17:00,
2013-01-20 06:22:00,35.1,26.6,29.60,East,94,0.0,7.0,71,0.00,,,0.00,Wunderground v.1.13,2013-01-20 11:22:00,
2013-01-20 06:27:00,35.1,26.6,29.59,NNE,32,2.0,7.0,71,0.00,,,0.00,Wunderground v.1.13,2013-01-20 11:27:00,
2013-01-20 06:32:00,35.1,26.6,29.59,NE,41,3.0,5.0,71,0.00,,,0.00,Wunderground v.1.13,2013-01-20 11:32:00,
2013-01-20 06:39:00,35.2,26.7,29.59,SE,142,2.0,6.0,71,0.00,,,0.00,Wunderground v.1.13,2013-01-20 11:39:00,
2013-01-20 06:44:00,35.4,26.6,29.59,East,98,0.0,7.0,70,0.00,,,0.00,Wunderground v.1.13,2013-01-20 11:44:00,
2013-01-20 06:49:00,35.6,26.8,29.58,North,5,6.0,7.0,70,0.00,,,0.00,Wunderground v.1.13,2013-01-20 11:49:00,
2013-01-20 06:54:00,35.6,26.8,29.58,NE,56,0.0,5.0,70,0.00,,,0.00,Wunderground v.1.13,2013-01-20 11:54:00,
2013-01-20 07:00:00,35.7,26.9,29.58,NW,313,1.0,2.0,70,0.00,,,0.00,Wunderground v.1.13,2013-01-20 12:00:00,
2013-01-20 07:05:00,35.7,26.9,29.58,East,88,5.0,5.0,70,0.00,,,0.00,Wunderground v.1.13,2013-01-20 12:05:00,
2013-01-20 07:10:00,35.7,26.9,29.58,SE,135,4.0,7.0,70,0.00,,,0.00,Wunderground v.1.13,2013-01-20 12:10:00,
2013-01-20 07:15:00,35.7,26.9,29.58,NE,56,2.0,3.0,70,0.00,,,0.00,Wunderground v.1.13,2013-01-20 12:15:00,
2013-01-20 07:20:00,35.8,27.0,29.58,ENE,59,2.0,2.0,70,0.00,,,0.00,Wunderground v.1.13,2013-01-20 12:20:00,
2013-01-20 07:25:00,35.8,27.0,29.59,WSW,244,1.0,5.0,70,0.00,,,0.00,Wunderground v.1.13,2013-01-20 12:25:00,
2013-01-20 07:30:00,35.9,27.1,29.58,ENE,61,2.0,2.0,70,0.00,,,0.00,Wunderground v.1.13,2013-01-20 12:30:00,
2013-01-20 07:35:00,35.8,27.3,29.59,NE,46,0.0,1.0,71,0.00,,,0.00,Wunderground v.1.13,2013-01-20 12:35:00,
2013-01-20 07:40:00,35.7,26.9,29.59,NE,46,2.0,2.0,70,0.00,,,0.00,Wunderground v.1.13,2013-01-20 12:40:00,
2013-01-20 07:45:00,35.6,27.1,29.59,ENE,63,1.0,1.0,71,0.00,,,0.00,Wunderground v.1.13,2013-01-20 12:45:00,
2013-01-20 07:50:00,35.6,27.1,29.59,NNE,28,0.0,2.0,71,0.00,,,0.00,Wunderground v.1.13,2013-01-20 12:50:00,
2013-01-20 07:55:00,35.7,27.2,29.59,NE,42,1.0,2.0,71,0.00,,,0.00,Wunderground v.1.13,2013-01-20 12:55:00,
2013-01-20 08:01:00,36.2,27.4,29.59,WNW,283,2.0,9.0,70,0.00,,,0.00,Wunderground v.1.13,2013-01-20 13:01:00,
2013-01-20 08:06:00,36.6,27.7,29.59,NE,43,1.0,2.0,70,0.00,,,0.00,Wunderground v.1.13,2013-01-20 13:06:00,
2013-01-20 08:11:00,36.8,27.2,29.58,SW,221,4.0,5.0,68,0.00,,,0.00,Wunderground v.1.13,2013-01-20 13:11:00,
2013-01-20 08:16:00,37.2,27.6,29.58,WSW,252,1.0,4.0,68,0.00,,,0.00,Wunderground v.1.13,2013-01-20 13:16:00,
2013-01-20 08:21:00,37.4,27.4,29.58,NNE,19,0.0,4.0,67,0.00,,,0.00,Wunderground v.1.13,2013-01-20 13:21:00,
2013-01-20 08:27:00,37.5,27.5,29.58,WNW,296,1.0,4.0,67,0.00,,,0.00,Wunderground v.1.13,2013-01-20 13:27:00,
2013-01-20 08:32:00,37.5,27.9,29.57,SSE,155,0.0,2.0,68,0.00,,,0.00,Wunderground v.1.13,2013-01-20 13:32:00,
2013-01-20 08:37:00,37.7,27.7,29.57,SSE,168,2.0,2.0,67,0.00,,,0.00,Wunderground v.1.13,2013-01-20 13:37:00,
2013-01-20 08:42:00,37.8,27.8,29.57,West,275,1.0,2.0,67,0.00,,,0.00,Wunderground v.1.13,2013-01-20 13:42:00,
2013-01-20 08:47:00,37.8,27.8,29.57,SSW,207,3.0,3.0,67,0.00,,,0.00,Wunderground v.1.13,2013-01-20 13:47:00,
2013-01-20 08:52:00,37.9,28.3,29.56,ESE,102,2.0,5.0,68,0.00,,,0.00,Wunderground v.1.13,2013-01-20 13:52:00,
2013-01-20 08:58:00,38.0,28.0,29.56,SW,232,1.0,5.0,67,0.00,,,0.00,Wunderground v.1.13,2013-01-20 13:58:00,
2013-01-20 09:03:00,38.2,28.2,29.55,East,96,3.0,5.0,67,0.00,,,0.00,Wunderground v.1.13,2013-01-20 14:03:00,
2013-01-20 09:08:00,38.5,28.1,29.55,SSW,193,2.0,7.0,66,0.00,,,0.00,Wunderground v.1.13,2013-01-20 14:08:00,
2013-01-20 09:13:00,38.9,28.1,29.55,North,360,5.0,7.0,65,0.00,,,0.00,Wunderground v.1.13,2013-01-20 14:13:00,
2013-01-20 09:18:00,39.3,28.5,29.54,NNE,17,5.0,5.0,65,0.00,,,0.00,Wunderground v.1.13,2013-01-20 14:18:00,
2013-01-20 09:23:00,39.8,28.2,29.54,NNW,337,2.0,6.0,63,0.00,,,0.00,Wunderground v.1.13,2013-01-20 14:23:00,
2013-01-20 09:28:00,40.2,28.6,29.54,NW,320,3.0,11.0,63,0.00,,,0.00,Wunderground v.1.13,2013-01-20 14:28:00,
2013-01-20 09:33:00,40.6,28.6,29.55,North,349,4.0,10.0,62,0.00,,,0.00,Wunderground v.1.13,2013-01-20 14:33:00,
2013-01-20 09:38:00,40.9,28.9,29.54,WSW,243,16.0,16.0,62,0.00,,,0.00,Wunderground v.1.13,2013-01-20 14:38:00,
2013-01-20 09:44:00,40.9,28.5,29.55,WNW,296,4.0,11.0,61,0.00,,,0.00,Wunderground v.1.13,2013-01-20 14:44:00,
2013-01-20 09:49:00,41.1,28.7,29.55,NE,46,3.0,9.0,61,0.00,,,0.00,Wunderground v.1.13,2013-01-20 14:49:00,
2013-01-20 09:54:00,41.4,28.9,29.54,NE,49,4.0,9.0,61,0.00,,,0.00,Wunderground v.1.13,2013-01-20 14:54:00,
2013-01-20 09:59:00,41.7,28.8,29.54,WSW,243,5.0,5.0,60,0.00,,,0.00,Wunderground v.1.13,2013-01-20 14:59:00,
2013-01-20 10:04:00,42.0,28.7,29.54,SE,142,0.0,4.0,59,0.00,,,0.00,Wunderground v.1.13,2013-01-20 15:04:00,
2013-01-20 10:09:00,42.5,29.2,29.54,NNW,344,2.0,4.0,59,0.00,,,0.00,Wunderground v.1.13,2013-01-20 15:09:00,
2013-01-20 10:14:00,42.8,29.0,29.55,South,187,9.0,9.0,58,0.00,,,0.00,Wunderground v.1.13,2013-01-20 15:14:00,
2013-01-20 10:19:00,42.9,29.1,29.55,NW,313,1.0,5.0,58,0.00,,,0.00,Wunderground v.1.13,2013-01-20 15:19:00,
2013-01-20 10:25:00,42.8,29.0,29.56,ESE,108,1.0,5.0,58,0.00,,,0.00,Wunderground v.1.13,2013-01-20 15:25:00,
2013-01-20 10:30:00,42.4,29.5,29.56,WNW,298,1.0,4.0,60,0.00,,,0.00,Wunderground v.1.13,2013-01-20 15:30:00,
2013-01-20 10:35:00,41.9,30.2,29.57,South,178,3.0,7.0,63,0.00,,,0.00,Wunderground v.1.13,2013-01-20 15:35:00,
2013-01-20 10:40:00,41.3,31.5,29.57,WNW,297,3.0,5.0,68,0.00,,,0.00,Wunderground v.1.13,2013-01-20 15:40:00,
2013-01-20 10:46:00,39.4,31.1,29.58,NNW,336,7.0,10.0,72,0.00,,,0.00,Wunderground v.1.13,2013-01-20 15:46:00,
2013-01-20 10:51:00,37.6,31.4,29.59,NNW,336,8.0,17.0,78,0.00,,,0.00,Wunderground v.1.13,2013-01-20 15:51:00,
2013-01-20 10:56:00,36.3,31.6,29.59,NW,319,2.0,8.0,83,0.00,,,0.00,Wunderground v.1.13,2013-01-20 15:56:00,
2013-01-20 11:01:00,35.3,31.8,29.58,WNW,296,4.0,12.0,87,0.00,,,0.00,Wunderground v.1.13,2013-01-20 16:01:00,
2013-01-20 11:07:00,34.6,31.7,29.59,NW,304,4.0,6.0,89,0.00,,,0.00,Wunderground v.1.13,2013-01-20 16:07:00,
2013-01-20 11:12:00,34.3,31.7,29.58,NW,315,3.0,10.0,90,0.00,,,0.00,Wunderground v.1.13,2013-01-20 16:12:00,
2013-01-20 11:17:00,34.1,31.7,29.57,West,269,6.0,9.0,91,0.00,,,0.01,Wunderground v.1.13,2013-01-20 16:17:00,
2013-01-20 11:22:00,34.1,32.0,29.58,WNW,286,3.0,7.0,92,0.00,,,0.01,Wunderground v.1.13,2013-01-20 16:22:00,
2013-01-20 11:28:00,34.0,31.9,29.58,NNW,336,4.0,13.0,92,0.00,,,0.01,Wunderground v.1.13,2013-01-20 16:28:00,
2013-01-20 11:33:00,33.8,31.7,29.59,NW,321,5.0,10.0,92,0.00,,,0.01,Wunderground v.1.13,2013-01-20 16:33:00,
2013-01-20 11:38:00,33.5,31.4,29.58,West,275,8.0,12.0,92,0.00,,,0.01,Wunderground v.1.13,2013-01-20 16:38:00,
2013-01-20 11:43:00,33.1,31.0,29.59,West,267,3.0,14.0,92,0.00,,,0.02,Wunderground v.1.13,2013-01-20 16:43:00,
2013-01-20 11:48:00,32.8,30.7,29.58,NNW,341,4.0,14.0,92,0.00,,,0.02,Wunderground v.1.13,2013-01-20 16:48:00,
2013-01-20 11:54:00,32.7,30.6,29.58,WNW,286,7.0,7.0,92,0.00,,,0.02,Wunderground v.1.13,2013-01-20 16:54:00,
2013-01-20 11:59:00,32.9,30.3,29.59,NNW,331,6.0,16.0,90,0.00,,,0.02,Wunderground v.1.13,2013-01-20 16:59:00,
2013-01-20 12:05:00,33.3,30.1,29.57,West,259,9.0,12.0,88,0.00,,,0.02,Wunderground v.1.13,2013-01-20 17:05:00,
2013-01-20 12:10:00,33.8,29.8,29.57,WNW,292,4.0,9.0,85,0.00,,,0.02,Wunderground v.1.13,2013-01-20 17:10:00,
2013-01-20 12:15:00,34.3,29.7,29.57,WNW,289,4.0,9.0,83,0.00,,,0.02,Wunderground v.1.13,2013-01-20 17:15:00,
2013-01-20 12:20:00,34.6,29.7,29.57,WSW,254,5.0,14.0,82,0.00,,,0.02,Wunderground v.1.13,2013-01-20 17:20:00,
2013-01-20 12:25:00,34.5,28.7,29.56,West,277,8.0,10.0,79,0.00,,,0.02,Wunderground v.1.13,2013-01-20 17:25:00,
2013-01-20 12:30:00,34.4,28.6,29.57,West,260,4.0,11.0,79,0.00,,,0.02,Wunderground v.1.13,2013-01-20 17:30:00,
2013-01-20 12:35:00,34.4,28.6,29.57,WSW,257,4.0,5.0,79,0.00,,,0.02,Wunderground v.1.13,2013-01-20 17:35:00,
2013-01-20 12:41:00,35.1,28.9,29.58,WSW,255,8.0,8.0,78,0.00,,,0.02,Wunderground v.1.13,2013-01-20 17:41:00,
2013-01-20 12:46:00,35.8,28.6,29.58,WNW,295,4.0,7.0,75,0.00,,,0.02,Wunderground v.1.13,2013-01-20 17:46:00,
2013-01-20 12:51:00,36.2,27.7,29.59,NW,320,4.0,15.0,71,0.00,,,0.02,Wunderground v.1.13,2013-01-20 17:51:00,
2013-01-20 12:56:00,36.4,26.5,29.58,North,355,6.0,9.0,67,0.00,,,0.02,Wunderground v.1.13,2013-01-20 17:56:00,
2013-01-20 13:01:00,36.4,25.7,29.58,WSW,255,4.0,9.0,65,0.00,,,0.02,Wunderground v.1.13,2013-01-20 18:01:00,
2013-01-20 13:06:00,36.5,25.5,29.58,West,279,3.0,10.0,64,0.00,,,0.02,Wunderground v.1.13,2013-01-20 18:06:00,
2013-01-20 13:11:00,36.6,24.8,29.58,NW,316,4.0,9.0,62,0.00,,,0.02,Wunderground v.1.13,2013-01-20 18:11:00,
2013-01-20 13:16:00,36.7,24.5,29.59,SW,215,9.0,12.0,61,0.00,,,0.02,Wunderground v.1.13,2013-01-20 18:16:00,
2013-01-20 13:21:00,36.3,22.9,29.59,WNW,298,5.0,18.0,58,0.00,,,0.02,Wunderground v.1.13,2013-01-20 18:21:00,
2013-01-20 13:27:00,36.1,22.3,29.59,WSW,240,5.0,11.0,57,0.00,,,0.02,Wunderground v.1.13,2013-01-20 18:27:00,
2013-01-20 13:32:00,36.1,21.9,29.60,NW,309,2.0,6.0,56,0.00,,,0.02,Wunderground v.1.13,2013-01-20 18:32:00,
2013-01-20 13:37:00,35.7,20.7,29.60,North,5,5.0,13.0,54,0.00,,,0.02,Wunderground v.1.13,2013-01-20 18:37:00,
2013-01-20 13:42:00,35.5,20.0,29.61,WNW,292,9.0,24.0,53,0.00,,,0.02,Wunderground v.1.13,2013-01-20 18:42:00,
2013-01-20 13:47:00,35.0,19.6,29.61,WSW,250,8.0,11.0,53,0.00,,,0.02,Wunderground v.1.13,2013-01-20 18:47:00,
2013-01-20 13:52:00,35.0,19.1,29.61,NNW,335,4.0,12.0,52,0.00,,,0.02,Wunderground v.1.13,2013-01-20 18:52:00,
2013-01-20 13:57:00,35.0,18.2,29.61,NW,316,3.0,11.0,50,0.00,,,0.02,Wunderground v.1.13,2013-01-20 18:57:00,
2013-01-20 14:02:00,34.6,16.9,29.62,NNW,343,6.0,33.0,48,0.00,,,0.02,Wunderground v.1.13,2013-01-20 19:02:00,
2013-01-20 14:08:00,34.5,17.8,29.63,SSW,213,11.0,11.0,50,0.00,,,0.02,Wunderground v.1.13,2013-01-20 19:08:00,
2013-01-20 14:13:00,34.6,18.3,29.63,NNW,331,3.0,13.0,51,0.00,,,0.02,Wunderground v.1.13,2013-01-20 19:13:00,
2013-01-20 14:18:00,34.8,18.9,29.63,West,262,5.0,10.0,52,0.00,,,0.02,Wunderground v.1.13,2013-01-20 19:18:00,
2013-01-20 14:23:00,34.8,18.9,29.64,West,270,8.0,13.0,52,0.00,,,0.02,Wunderground v.1.13,2013-01-20 19:23:00,
2013-01-20 14:28:00,34.2,18.8,29.64,SSW,199,6.0,14.0,53,0.00,,,0.02,Wunderground v.1.13,2013-01-20 19:28:00,
2013-01-20 14:33:00,33.7,19.2,29.64,WSW,256,8.0,10.0,55,0.00,,,0.02,Wunderground v.1.13,2013-01-20 19:33:00,
2013-01-20 14:39:00,33.4,19.4,29.65,SW,233,4.0,12.0,56,0.00,,,0.02,Wunderground v.1.13,2013-01-20 19:39:00,
2013-01-20 14:44:00,33.0,19.0,29.66,SW,217,12.0,17.0,56,0.00,,,0.02,Wunderground v.1.13,2013-01-20 19:44:00,
2013-01-20 14:49:00,32.8,18.8,29.66,WNW,292,3.0,6.0,56,0.00,,,0.02,Wunderground v.1.13,2013-01-20 19:49:00,
2013-01-20 14:54:00,32.6,19.0,29.66,WSW,257,3.0,5.0,57,0.00,,,0.02,Wunderground v.1.13,2013-01-20 19:54:00,
2013-01-20 15:00:00,32.2,18.2,29.67,SSW,201,12.0,12.0,56,0.00,,,0.02,Wunderground v.1.13,2013-01-20 20:00:00,
2013-01-20 15:05:00,31.7,18.6,29.68,WNW,297,5.0,7.0,58,0.00,,,0.02,Wunderground v.1.13,2013-01-20 20:05:00,
2013-01-20 15:10:00,30.8,18.1,29.68,WNW,285,5.0,11.0,59,0.00,,,0.02,Wunderground v.1.13,2013-01-20 20:10:00,
2013-01-20 15:15:00,30.3,17.7,29.69,NW,310,5.0,14.0,59,0.00,,,0.02,Wunderground v.1.13,2013-01-20 20:15:00,
2013-01-20 15:20:00,30.1,18.3,29.68,NNW,340,7.0,15.0,61,0.00,,,0.02,Wunderground v.1.13,2013-01-20 20:20:00,
2013-01-20 15:25:00,29.7,17.5,29.69,NNW,329,6.0,15.0,60,0.00,,,0.02,Wunderground v.1.13,2013-01-20 20:25:00,
2013-01-20 15:30:00,29.5,18.1,29.70,WSW,244,5.0,10.0,62,0.00,,,0.02,Wunderground v.1.13,2013-01-20 20:30:00,
2013-01-20 15:36:00,29.3,17.9,29.71,WNW,300,4.0,14.0,62,0.00,,,0.02,Wunderground v.1.13,2013-01-20 20:36:00,
2013-01-20 15:41:00,29.2,17.8,29.71,NNW,329,3.0,15.0,62,0.00,,,0.02,Wunderground v.1.13,2013-01-20 20:41:00,
2013-01-20 15:46:00,29.0,16.8,29.71,WSW,250,8.0,11.0,60,0.00,,,0.02,Wunderground v.1.13,2013-01-20 20:46:00,
2013-01-20 15:52:00,28.9,16.4,29.72,WSW,253,13.0,13.0,59,0.00,,,0.02,Wunderground v.1.13,2013-01-20 20:52:00,
2013-01-20 15:57:00,28.8,16.3,29.73,WSW,251,17.0,17.0,59,0.00,,,0.02,Wunderground v.1.13,2013-01-20 20:57:00,
2013-01-20 16:02:00,28.6,16.5,29.72,NW,313,8.0,29.0,60,0.00,,,0.02,Wunderground v.1.13,2013-01-20 21:02:00,
2013-01-20 16:07:00,28.4,16.7,29.73,NW,317,5.0,22.0,61,0.00,,,0.02,Wunderground v.1.13,2013-01-20 21:07:00,
2013-01-20 16:12:00,28.1,16.4,29.73,WNW,294,4.0,21.0,61,0.00,,,0.02,Wunderground v.1.13,2013-01-20 21:12:00,
2013-01-20 16:18:00,27.8,16.5,29.73,WNW,296,6.0,22.0,62,0.00,,,0.02,Wunderground v.1.13,2013-01-20 21:18:00,
2013-01-20 16:23:00,27.6,16.3,29.74,WSW,242,10.0,24.0,62,0.00,,,0.02,Wunderground v.1.13,2013-01-20 21:23:00,
2013-01-20 16:28:00,27.4,16.4,29.74,WSW,240,7.0,15.0,63,0.00,,,0.02,Wunderground v.1.13,2013-01-20 21:28:00,
2013-01-20 16:34:00,27.2,15.9,29.74,NW,325,9.0,11.0,62,0.00,,,0.02,Wunderground v.1.13,2013-01-20 21:34:00,
2013-01-20 16:39:00,27.0,15.7,29.75,NW,306,1.0,12.0,62,0.00,,,0.02,Wunderground v.1.13,2013-01-20 21:39:00,
2013-01-20 16:44:00,26.9,16.0,29.75,WNW,302,3.0,7.0,63,0.00,,,0.02,Wunderground v.1.13,2013-01-20 21:44:00,
2013-01-20 16:49:00,26.7,16.1,29.77,NNW,333,5.0,7.0,64,0.00,,,0.02,Wunderground v.1.13,2013-01-20 21:49:00,
2013-01-20 16:54:00,26.6,16.4,29.77,NW,319,2.0,6.0,65,0.00,,,0.02,Wunderground v.1.13,2013-01-20 21:54:00,
2013-01-20 16:59:00,26.4,16.2,29.77,WNW,297,5.0,6.0,65,0.00,,,0.02,Wunderground v.1.13,2013-01-20 21:59:00,
2013-01-20 17:04:00,26.3,16.1,29.77,WNW,293,2.0,7.0,65,0.00,,,0.02,Wunderground v.1.13,2013-01-20 22:04:00,
2013-01-20 17:09:00,26.1,15.9,29.79,NW,323,2.0,6.0,65,0.00,,,0.02,Wunderground v.1.13,2013-01-20 22:09:00,
2013-01-20 17:14:00,25.8,15.6,29.78,NNW,329,5.0,6.0,65,0.00,,,0.02,Wunderground v.1.13,2013-01-20 22:14:00,
2013-01-20 17:20:00,25.5,15.0,29.78,West,272,6.0,9.0,64,0.00,,,0.02,Wunderground v.1.13,2013-01-20 22:20:00,
2013-01-20 17:25:00,25.2,14.7,29.78,NNE,19,4.0,17.0,64,0.00,,,0.02,Wunderground v.1.13,2013-01-20 22:25:00,
2013-01-20 17:30:00,25.0,14.2,29.79,NW,304,4.0,9.0,63,0.00,,,0.02,Wunderground v.1.13,2013-01-20 22:30:00,
2013-01-20 17:35:00,24.8,14.0,29.79,NW,313,2.0,6.0,63,0.00,,,0.02,Wunderground v.1.13,2013-01-20 22:35:00,
2013-01-20 17:40:00,24.6,13.1,29.79,WNW,287,5.0,9.0,61,0.00,,,0.02,Wunderground v.1.13,2013-01-20 22:40:00,
2013-01-20 17:45:00,24.4,12.5,29.79,NNW,329,12.0,14.0,60,0.00,,,0.02,Wunderground v.1.13,2013-01-20 22:45:00,
2013-01-20 17:50:00,24.3,12.0,29.79,West,261,10.0,12.0,59,0.00,,,0.02,Wunderground v.1.13,2013-01-20 22:50:00,
2013-01-20 17:55:00,24.1,11.8,29.80,WSW,248,10.0,10.0,59,0.00,,,0.02,Wunderground v.1.13,2013-01-20 22:55:00,
2013-01-20 18:01:00,24.0,12.1,29.80,WNW,285,5.0,15.0,60,0.00,,,0.02,Wunderground v.1.13,2013-01-20 23:01:00,
2013-01-20 18:07:00,24.0,12.1,29.80,NNW,327,5.0,19.0,60,0.00,,,0.02,Wunderground v.1.13,2013-01-20 23:07:00,
2013-01-20 18:12:00,23.9,12.0,29.81,WSW,258,14.0,14.0,60,0.00,,,0.02,Wunderground v.1.13,2013-01-20 23:12:00,
2013-01-20 18:17:00,23.8,12.3,29.80,NNW,339,2.0,19.0,61,0.00,,,0.02,Wunderground v.1.13,2013-01-20 23:17:00,
2013-01-20 18:22:00,23.7,12.2,29.81,WSW,240,8.0,13.0,61,0.00,,,0.02,Wunderground v.1.13,2013-01-20 23:22:00,
2013-01-20 18:28:00,23.6,12.5,29.81,WNW,296,4.0,13.0,62,0.00,,,0.02,Wunderground v.1.13,2013-01-20 23:28:00,
2013-01-20 18:33:00,23.6,12.5,29.81,West,271,9.0,18.0,62,0.00,,,0.02,Wunderground v.1.13,2013-01-20 23:33:00,
2013-01-20 18:38:00,23.5,12.7,29.81,NW,304,6.0,8.0,63,0.00,,,0.02,Wunderground v.1.13,2013-01-20 23:38:00,
2013-01-20 18:43:00,23.5,12.4,29.81,NW,320,6.0,14.0,62,0.00,,,0.02,Wunderground v.1.13,2013-01-20 23:43:00,
2013-01-20 18:48:00,23.4,12.3,29.81,WSW,247,12.0,15.0,62,0.00,,,0.02,Wunderground v.1.13,2013-01-20 23:48:00,
2013-01-20 18:53:00,23.4,12.3,29.81,West,279,6.0,13.0,62,0.00,,,0.02,Wunderground v.1.13,2013-01-20 23:53:00,
2013-01-20 18:58:00,23.4,12.3,29.82,SW,230,12.0,13.0,62,0.00,,,0.02,Wunderground v.1.13,2013-01-20 23:58:00,
2013-01-20 19:03:00,23.4,12.3,29.82,WNW,296,3.0,15.0,62,0.00,,,0.02,Wunderground v.1.13,2013-01-21 00:03:00,
2013-01-20 19:09:00,23.4,12.3,29.82,NW,320,4.0,5.0,62,0.00,,,0.02,Wunderground v.1.13,2013-01-21 00:09:00,
2013-01-20 19:14:00,23.4,12.6,29.82,West,277,10.0,10.0,63,0.00,,,0.02,Wunderground v.1.13,2013-01-21 00:14:00,
2013-01-20 19:19:00,23.3,12.6,29.83,West,267,12.0,12.0,63,0.00,,,0.02,Wunderground v.1.13,2013-01-21 00:19:00,
2013-01-20 19:24:00,23.2,12.8,29.83,West,259,4.0,7.0,64,0.00,,,0.02,Wunderground v.1.13,2013-01-21 00:24:00,
2013-01-20 19:29:00,23.1,12.7,29.84,WSW,238,7.0,17.0,64,0.00,,,0.02,Wunderground v.1.13,2013-01-21 00:29:00,
2013-01-20 19:34:00,23.1,12.4,29.84,NW,325,4.0,17.0,63,0.00,,,0.02,Wunderground v.1.13,2013-01-21 00:34:00,
2013-01-20 19:40:00,23.0,11.9,29.84,North,360,3.0,6.0,62,0.00,,,0.02,Wunderground v.1.13,2013-01-21 00:40:00,
2013-01-20 19:45:00,23.0,11.9,29.84,NNW,346,3.0,6.0,62,0.00,,,0.02,Wunderground v.1.13,2013-01-21 00:45:00,
2013-01-20 19:50:00,22.9,11.8,29.84,SSW,200,3.0,7.0,62,0.00,,,0.02,Wunderground v.1.13,2013-01-21 00:50:00,
2013-01-20 19:55:00,22.9,12.2,29.85,WSW,237,15.0,15.0,63,0.00,,,0.02,Wunderground v.1.13,2013-01-21 00:55:00,
2013-01-20 20:00:00,22.9,12.2,29.84,West,261,8.0,9.0,63,0.00,,,0.02,Wunderground v.1.13,2013-01-21 01:00:00,
2013-01-20 20:06:00,22.9,12.5,29.85,NW,321,4.0,11.0,64,0.00,,,0.02,Wunderground v.1.13,2013-01-21 01:06:00,
2013-01-20 20:11:00,22.8,12.8,29.86,NNW,341,3.0,13.0,65,0.00,,,0.02,Wunderground v.1.13,2013-01-21 01:11:00,
2013-01-20 20:16:00,22.6,13.6,29.86,NNW,338,2.0,6.0,68,0.00,,,0.02,Wunderground v.1.13,2013-01-21 01:16:00,
2013-01-20 20:21:00,22.4,14.1,29.86,NW,304,4.0,13.0,70,0.00,,,0.02,Wunderground v.1.13,2013-01-21 01:21:00,
2013-01-20 20:26:00,22.0,15.0,29.86,WNW,288,4.0,14.0,74,0.00,,,0.02,Wunderground v.1.13,2013-01-21 01:26:00,
2013-01-20 20:31:00,21.7,15.6,29.86,North,360,5.0,6.0,77,0.00,,,0.02,Wunderground v.1.13,2013-01-21 01:31:00,
2013-01-20 20:36:00,21.8,14.2,29.86,SW,219,6.0,12.0,72,0.00,,,0.02,Wunderground v.1.13,2013-01-21 01:36:00,
2013-01-20 20:41:00,21.9,13.9,29.87,NNW,333,6.0,10.0,71,0.00,,,0.02,Wunderground v.1.13,2013-01-21 01:41:00,
2013-01-20 20:46:00,21.8,13.8,29.87,West,275,3.0,7.0,71,0.00,,,0.02,Wunderground v.1.13,2013-01-21 01:46:00,
2013-01-20 20:51:00,21.8,13.8,29.87,NNW,343,9.0,9.0,71,0.00,,,0.02,Wunderground v.1.13,2013-01-21 01:51:00,
2013-01-20 20:56:00,21.7,13.4,29.87,NW,306,3.0,8.0,70,0.00,,,0.02,Wunderground v.1.13,2013-01-21 01:56:00,
2013-01-20 21:02:00,21.7,14.4,29.88,West,274,16.0,16.0,73,0.00,,,0.02,Wunderground v.1.13,2013-01-21 02:02:00,
2013-01-20 21:07:00,21.5,14.2,29.88,NNW,328,4.0,13.0,73,0.00,,,0.02,Wunderground v.1.13,2013-01-21 02:07:00,
2013-01-20 21:12:00,21.5,14.2,29.88,NW,323,6.0,12.0,73,0.00,,,0.02,Wunderground v.1.13,2013-01-21 02:12:00,
2013-01-20 21:18:00,21.4,14.7,29.88,NNW,335,4.0,10.0,75,0.00,,,0.02,Wunderground v.1.13,2013-01-21 02:18:00,
2013-01-20 21:23:00,21.1,15.6,29.88,SW,217,3.0,16.0,79,0.00,,,0.02,Wunderground v.1.13,2013-01-21 02:23:00,
2013-01-20 21:28:00,20.6,16.0,29.88,WSW,254,6.0,11.0,82,0.00,,,0.02,Wunderground v.1.13,2013-01-21 02:28:00,
2013-01-20 21:33:00,20.3,16.0,29.89,WNW,285,2.0,4.0,83,0.00,,,0.02,Wunderground v.1.13,2013-01-21 02:33:00,
2013-01-20 21:38:00,20.2,15.9,29.89,WNW,302,2.0,6.0,83,0.00,,,0.02,Wunderground v.1.13,2013-01-21 02:38:00,
2013-01-20 21:43:00,20.2,15.6,29.89,NNW,341,3.0,6.0,82,0.00,,,0.02,Wunderground v.1.13,2013-01-21 02:43:00,
2013-01-20 21:48:00,20.1,15.5,29.89,WNW,298,2.0,9.0,82,0.00,,,0.02,Wunderground v.1.13,2013-01-21 02:48:00,
2013-01-20 21:53:00,20.0,15.1,29.90,WSW,247,7.0,9.0,81,0.00,,,0.02,Wunderground v.1.13,2013-01-21 02:53:00,
2013-01-20 21:58:00,20.1,15.2,29.90,NNE,13,4.0,8.0,81,0.00,,,0.02,Wunderground v.1.13,2013-01-21 02:58:00,
2013-01-20 22:03:00,20.0,14.5,29.90,SW,223,7.0,7.0,79,0.00,,,0.02,Wunderground v.1.13,2013-01-21 03:03:00,
2013-01-20 22:08:00,20.1,14.3,29.90,WSW,252,5.0,14.0,78,0.00,,,0.02,Wunderground v.1.13,2013-01-21 03:08:00,
2013-01-20 22:13:00,20.1,13.7,29.90,WNW,283,2.0,13.0,76,0.00,,,0.02,Wunderground v.1.13,2013-01-21 03:13:00,
2013-01-20 22:19:00,20.1,13.7,29.91,WNW,294,4.0,6.0,76,0.00,,,0.02,Wunderground v.1.13,2013-01-21 03:19:00,
2013-01-20 22:24:00,19.9,13.3,29.91,SW,232,4.0,7.0,75,0.00,,,0.02,Wunderground v.1.13,2013-01-21 03:24:00,
2013-01-20 22:29:00,19.8,13.2,29.91,WNW,302,2.0,10.0,75,0.00,,,0.02,Wunderground v.1.13,2013-01-21 03:29:00,
2013-01-20 22:34:00,19.6,13.0,29.91,WSW,237,6.0,14.0,75,0.00,,,0.02,Wunderground v.1.13,2013-01-21 03:34:00,
2013-01-20 22:39:00,19.4,12.8,29.92,NW,326,2.0,12.0,75,0.00,,,0.02,Wunderground v.1.13,2013-01-21 03:39:00,
2013-01-20 22:44:00,19.3,12.4,29.92,NNW,338,2.0,6.0,74,0.00,,,0.02,Wunderground v.1.13,2013-01-21 03:44:00,
2013-01-20 22:49:00,19.1,12.5,29.92,SSW,209,5.0,7.0,75,0.00,,,0.02,Wunderground v.1.13,2013-01-21 03:49:00,
2013-01-20 22:54:00,18.8,12.2,29.92,SW,217,6.0,8.0,75,0.00,,,0.02,Wunderground v.1.13,2013-01-21 03:54:00,
2013-01-20 22:59:00,18.7,12.1,29.92,NNW,336,1.0,3.0,75,0.00,,,0.02,Wunderground v.1.13,2013-01-21 03:59:00,
2013-01-20 23:04:00,18.6,11.7,29.92,WSW,254,12.0,13.0,74,0.00,,,0.02,Wunderground v.1.13,2013-01-21 04:04:00,
2013-01-20 23:09:00,18.6,11.7,29.93,WNW,288,2.0,3.0,74,0.00,,,0.02,Wunderground v.1.13,2013-01-21 04:09:00,
2013-01-20 23:14:00,18.6,10.8,29.93,WNW,295,1.0,3.0,71,0.00,,,0.02,Wunderground v.1.13,2013-01-21 04:14:00,
2013-01-20 23:19:00,18.6,10.4,29.93,North,349,2.0,4.0,70,0.00,,,0.02,Wunderground v.1.13,2013-01-21 04:19:00,
2013-01-20 23:24:00,18.6,10.1,29.93,WSW,241,6.0,6.0,69,0.00,,,0.02,Wunderground v.1.13,2013-01-21 04:24:00,
2013-01-20 23:29:00,18.5,10.3,29.93,SW,236,3.0,3.0,70,0.00,,,0.02,Wunderground v.1.13,2013-01-21 04:29:00,
2013-01-20 23:34:00,18.5,10.7,29.93,West,271,3.0,5.0,71,0.00,,,0.02,Wunderground v.1.13,2013-01-21 04:34:00,
2013-01-20 23:40:00,18.3,10.1,29.94,West,278,4.0,15.0,70,0.00,,,0.02,Wunderground v.1.13,2013-01-21 04:40:00,
2013-01-20 23:45:00,18.2,9.7,29.93,WNW,291,2.0,7.0,69,0.00,,,0.02,Wunderground v.1.13,2013-01-21 04:45:00,
2013-01-20 23:50:00,18.1,9.0,29.93,NNW,327,2.0,4.0,67,0.00,,,0.02,Wunderground v.1.13,2013-01-21 04:50:00,
2013-01-20 23:55:00,18.0,8.2,29.93,SSW,196,3.0,11.0,65,0.00,,,0.02,Wunderground v.1.13,2013-01-21 04:55:00,